2024-153B (60746 NORAD) Tracking and Keplerian Element Data

This shows tracking and keplerian element data for the satellite.

Feedback or suggestion? Click here.




ElementValue
Catalog60746
Name2024-153B
Epoch Orbit674
Epoch Day286.85067997
Epoch Year2024
RAAN44.1629
Inclination97.6194
Eccentricity0.001657
Argument of Perigee136.3592
Mean Anonmoly223.8951
Mean Motion15.11714899
Decay Rate0.00025651
L11 60746U 24153B 24286.85067997 .00025651 00000+0 15007-2 0 9994
L22 60746 97.6194 44.1629 0016570 136.3592 223.8951 15.11714899 6748



Live tracking and technical data element details for 2024-153B (NORAD 60746). 2024-153B can be tracked NOW for your location showing map with azimuth and elevation plus other details from your city location.







IsCatalogInMostPopularTable: catalog: 60746, numindb: 5
Update: records affected: 1



GetName: 60746 2024-153B

Hit Count: updated at: Fri, 06 Dec 2024 10:23:00 GMT